Year,Month,Day,Hour,Minute,Value (Times are PST for barometer in hPa)
2013,09,30,00,00,983.76
2013,09,30,00,01,983.78
2013,09,30,00,02,983.78
2013,09,30,00,03,983.78
2013,09,30,00,04,983.78
2013,09,30,00,05,983.78
2013,09,30,00,06,983.78
2013,09,30,00,07,983.78
2013,09,30,00,08,983.78
2013,09,30,00,09,983.78
2013,09,30,00,10,983.78
2013,09,30,00,11,983.78
2013,09,30,00,12,983.78
2013,09,30,00,13,983.78
2013,09,30,00,14,983.78
2013,09,30,00,15,984.36
2013,09,30,00,16,984.36
2013,09,30,00,17,984.36
2013,09,30,00,18,984.36
2013,09,30,00,19,984.36
2013,09,30,00,20,984.36
2013,09,30,00,21,984.36
2013,09,30,00,22,984.36
2013,09,30,00,23,984.36
2013,09,30,00,24,984.36
2013,09,30,00,25,984.36
2013,09,30,00,26,984.36
2013,09,30,00,27,984.36
2013,09,30,00,28,984.36
2013,09,30,00,29,984.36
2013,09,30,00,30,984.42
2013,09,30,00,31,984.42
2013,09,30,00,32,984.42
2013,09,30,00,33,984.42
2013,09,30,00,34,984.42
2013,09,30,00,35,984.42
2013,09,30,00,36,984.42
2013,09,30,00,37,984.42
2013,09,30,00,38,984.42
2013,09,30,00,39,984.42
2013,09,30,00,40,984.42
2013,09,30,00,41,984.42
2013,09,30,00,42,984.42
2013,09,30,00,43,984.42
2013,09,30,00,44,984.42
2013,09,30,00,45,984.53
2013,09,30,00,46,984.53
2013,09,30,00,47,984.53
2013,09,30,00,48,984.53
2013,09,30,00,49,984.53
2013,09,30,00,50,984.53
2013,09,30,00,51,984.53
2013,09,30,00,52,984.53
2013,09,30,00,53,984.53
2013,09,30,00,54,984.53
2013,09,30,00,55,984.53
2013,09,30,00,56,984.53
2013,09,30,00,57,984.53
2013,09,30,00,58,984.53
2013,09,30,00,59,984.53
2013,09,30,01,00,985.27
2013,09,30,01,01,985.27
2013,09,30,01,02,985.27
2013,09,30,01,03,985.27
2013,09,30,01,04,985.27
2013,09,30,01,05,985.27
2013,09,30,01,06,985.27
2013,09,30,01,07,985.27
2013,09,30,01,08,985.27
2013,09,30,01,09,985.27
2013,09,30,01,10,985.27
2013,09,30,01,11,985.27
2013,09,30,01,12,985.27
2013,09,30,01,13,985.27
2013,09,30,01,14,985.27
2013,09,30,01,15,985.61
2013,09,30,01,16,985.61
2013,09,30,01,17,985.61
2013,09,30,01,18,985.61
2013,09,30,01,19,985.61
2013,09,30,01,20,985.61
2013,09,30,01,21,985.61
2013,09,30,01,22,985.61
2013,09,30,01,23,985.61
2013,09,30,01,24,985.61
2013,09,30,01,25,985.61
2013,09,30,01,26,985.61
2013,09,30,01,27,985.61
2013,09,30,01,28,985.61
2013,09,30,01,29,985.61
2013,09,30,01,30,985.91
2013,09,30,01,31,985.91
2013,09,30,01,32,985.91
2013,09,30,01,33,985.91
2013,09,30,01,34,985.91
2013,09,30,01,35,985.91
2013,09,30,01,36,985.91
2013,09,30,01,37,985.91
2013,09,30,01,38,985.91
2013,09,30,01,39,985.91
2013,09,30,01,40,985.91
2013,09,30,01,41,985.91
2013,09,30,01,42,985.91
2013,09,30,01,43,985.91
2013,09,30,01,44,985.91
2013,09,30,01,45,985.88
2013,09,30,01,46,985.88
2013,09,30,01,47,985.88
2013,09,30,01,48,985.88
2013,09,30,01,49,985.88
2013,09,30,01,50,985.88
2013,09,30,01,51,985.88
2013,09,30,01,52,985.88
2013,09,30,01,53,985.88
2013,09,30,01,54,985.88
2013,09,30,01,55,985.88
2013,09,30,01,56,985.88
2013,09,30,01,57,985.88
2013,09,30,01,58,985.88
2013,09,30,01,59,985.88
2013,09,30,02,00,986.22
2013,09,30,02,01,986.22
2013,09,30,02,02,986.22
2013,09,30,02,03,986.22
2013,09,30,02,04,986.22
2013,09,30,02,05,986.22
2013,09,30,02,06,986.22
2013,09,30,02,07,986.22
2013,09,30,02,08,986.22
2013,09,30,02,09,986.22
2013,09,30,02,10,986.22
2013,09,30,02,11,986.22
2013,09,30,02,12,986.22
2013,09,30,02,13,986.22
2013,09,30,02,14,986.22
2013,09,30,02,15,986.42
2013,09,30,02,16,986.42
2013,09,30,02,17,986.42
2013,09,30,02,18,986.42
2013,09,30,02,19,986.42
2013,09,30,02,20,986.42
2013,09,30,02,21,986.42
2013,09,30,02,22,986.42
2013,09,30,02,23,986.42
2013,09,30,02,24,986.42
2013,09,30,02,25,986.42
2013,09,30,02,26,986.42
2013,09,30,02,27,986.42
2013,09,30,02,28,986.42
2013,09,30,02,29,986.42
2013,09,30,02,30,986.59
2013,09,30,02,31,986.59
2013,09,30,02,32,986.59
2013,09,30,02,33,986.59
2013,09,30,02,34,986.59
2013,09,30,02,35,986.59
2013,09,30,02,36,986.59
2013,09,30,02,37,986.59
2013,09,30,02,38,986.59
2013,09,30,02,39,986.59
2013,09,30,02,40,986.59
2013,09,30,02,41,986.59
2013,09,30,02,42,986.59
2013,09,30,02,43,986.59
2013,09,30,02,44,986.59
2013,09,30,02,45,986.90
2013,09,30,02,46,986.90
2013,09,30,02,47,986.90
2013,09,30,02,48,986.90
2013,09,30,02,49,986.90
2013,09,30,02,50,986.90
2013,09,30,02,51,986.90
2013,09,30,02,52,986.90
2013,09,30,02,53,986.90
2013,09,30,02,54,986.90
2013,09,30,02,55,986.90
2013,09,30,02,56,986.90
2013,09,30,02,57,986.90
2013,09,30,02,58,986.90
2013,09,30,02,59,986.90
2013,09,30,03,00,987.40
2013,09,30,03,01,987.40
2013,09,30,03,02,987.40
2013,09,30,03,03,987.40
2013,09,30,03,04,987.40
2013,09,30,03,05,987.40
2013,09,30,03,06,987.40
2013,09,30,03,07,987.40
2013,09,30,03,08,987.40
2013,09,30,03,09,987.40
2013,09,30,03,10,987.40
2013,09,30,03,11,987.40
2013,09,30,03,12,987.40
2013,09,30,03,13,987.40
2013,09,30,03,14,987.40
2013,09,30,03,15,987.27
2013,09,30,03,16,987.27
2013,09,30,03,17,987.27
2013,09,30,03,18,987.27
2013,09,30,03,19,987.27
2013,09,30,03,20,987.27
2013,09,30,03,21,987.27
2013,09,30,03,22,987.27
2013,09,30,03,23,987.27
2013,09,30,03,24,987.27
2013,09,30,03,25,987.27
2013,09,30,03,26,987.27
2013,09,30,03,27,987.27
2013,09,30,03,28,987.27
2013,09,30,03,29,987.27
2013,09,30,03,30,987.44
2013,09,30,03,31,987.44
2013,09,30,03,32,987.44
2013,09,30,03,33,987.44
2013,09,30,03,34,987.44
2013,09,30,03,35,987.44
2013,09,30,03,36,987.44
2013,09,30,03,37,987.44
2013,09,30,03,38,987.44
2013,09,30,03,39,987.44
2013,09,30,03,40,987.44
2013,09,30,03,41,987.44
2013,09,30,03,42,987.44
2013,09,30,03,43,987.44
2013,09,30,03,44,987.44
2013,09,30,03,45,988.22
2013,09,30,03,46,988.22
2013,09,30,03,47,988.22
2013,09,30,03,48,988.22
2013,09,30,03,49,988.22
2013,09,30,03,50,988.22
2013,09,30,03,51,988.22
2013,09,30,03,52,988.22
2013,09,30,03,53,988.22
2013,09,30,03,54,988.22
2013,09,30,03,55,988.22
2013,09,30,03,56,988.22
2013,09,30,03,57,988.22
2013,09,30,03,58,988.22
2013,09,30,03,59,988.22
2013,09,30,04,00,988.83
2013,09,30,04,01,988.83
2013,09,30,04,02,988.83
2013,09,30,04,03,988.83
2013,09,30,04,04,988.83
2013,09,30,04,05,988.83
2013,09,30,04,06,988.83
2013,09,30,04,07,988.83
2013,09,30,04,08,988.83
2013,09,30,04,09,988.83
2013,09,30,04,10,988.83
2013,09,30,04,11,988.83
2013,09,30,04,12,988.83
2013,09,30,04,13,988.83
2013,09,30,04,14,988.83
2013,09,30,04,15,988.86
2013,09,30,04,16,988.86
2013,09,30,04,17,988.86
2013,09,30,04,18,988.86
2013,09,30,04,19,988.86
2013,09,30,04,20,988.86
2013,09,30,04,21,988.86
2013,09,30,04,22,988.86
2013,09,30,04,23,988.86
2013,09,30,04,24,988.86
2013,09,30,04,25,988.86
2013,09,30,04,26,988.86
2013,09,30,04,27,988.86
2013,09,30,04,28,988.86
2013,09,30,04,29,988.86
2013,09,30,04,30,988.86
2013,09,30,04,31,988.86
2013,09,30,04,32,988.86
2013,09,30,04,33,988.86
2013,09,30,04,34,988.86
2013,09,30,04,35,988.86
2013,09,30,04,36,988.86
2013,09,30,04,37,988.86
2013,09,30,04,38,988.86
2013,09,30,04,39,988.86
2013,09,30,04,40,988.86
2013,09,30,04,41,988.86
2013,09,30,04,42,988.86
2013,09,30,04,43,988.86
2013,09,30,04,44,988.86
2013,09,30,04,45,989.88
2013,09,30,04,46,989.88
2013,09,30,04,47,989.88
2013,09,30,04,48,989.88
2013,09,30,04,49,989.88
2013,09,30,04,50,989.88
2013,09,30,04,51,989.88
2013,09,30,04,52,989.88
2013,09,30,04,53,989.88
2013,09,30,04,54,989.88
2013,09,30,04,55,989.88
2013,09,30,04,56,989.88
2013,09,30,04,57,989.88
2013,09,30,04,58,989.88
2013,09,30,04,59,989.88
2013,09,30,05,00,990.01
2013,09,30,05,01,990.01
2013,09,30,05,02,990.01
2013,09,30,05,03,990.01
2013,09,30,05,04,990.01
2013,09,30,05,05,990.01
2013,09,30,05,06,990.01
2013,09,30,05,07,990.01
2013,09,30,05,08,990.01
2013,09,30,05,09,990.01
2013,09,30,05,10,990.01
2013,09,30,05,11,990.01
2013,09,30,05,12,990.01
2013,09,30,05,13,990.01
2013,09,30,05,14,990.01
2013,09,30,05,15,990.18
2013,09,30,05,16,990.18
2013,09,30,05,17,990.18
2013,09,30,05,18,990.18
2013,09,30,05,19,990.18
2013,09,30,05,20,990.18
2013,09,30,05,21,990.18
2013,09,30,05,22,990.18
2013,09,30,05,23,990.18
2013,09,30,05,24,990.18
2013,09,30,05,25,990.18
2013,09,30,05,26,990.18
2013,09,30,05,27,990.18
2013,09,30,05,28,990.18
2013,09,30,05,29,990.18
2013,09,30,05,30,990.55
2013,09,30,05,31,990.55
2013,09,30,05,32,990.55
2013,09,30,05,33,990.55
2013,09,30,05,34,990.55
2013,09,30,05,35,990.55
2013,09,30,05,36,990.55
2013,09,30,05,37,990.55
2013,09,30,05,38,990.55
2013,09,30,05,39,990.55
2013,09,30,05,40,990.55
2013,09,30,05,41,990.55
2013,09,30,05,42,990.55
2013,09,30,05,43,990.55
2013,09,30,05,44,990.55
2013,09,30,05,45,991.53
2013,09,30,05,46,991.53
2013,09,30,05,47,991.53
2013,09,30,05,48,991.53
2013,09,30,05,49,991.53
2013,09,30,05,50,991.53
2013,09,30,05,51,991.53
2013,09,30,05,52,991.53
2013,09,30,05,53,991.53
2013,09,30,05,54,991.53
2013,09,30,05,55,991.53
2013,09,30,05,56,991.53
2013,09,30,05,57,991.53
2013,09,30,05,58,991.53
2013,09,30,05,59,991.53
2013,09,30,06,00,991.57
2013,09,30,06,01,991.57
2013,09,30,06,02,991.57
2013,09,30,06,03,991.57
2013,09,30,06,04,991.57
2013,09,30,06,05,991.57
2013,09,30,06,06,991.57
2013,09,30,06,07,991.57
2013,09,30,06,08,991.57
2013,09,30,06,09,991.57
2013,09,30,06,10,991.57
2013,09,30,06,11,991.57
2013,09,30,06,12,991.57
2013,09,30,06,13,991.57
2013,09,30,06,14,991.57
2013,09,30,06,15,991.70
2013,09,30,06,16,991.70
2013,09,30,06,17,991.70
2013,09,30,06,18,991.70
2013,09,30,06,19,991.70
2013,09,30,06,20,991.70
2013,09,30,06,21,991.70
2013,09,30,06,22,991.70
2013,09,30,06,23,991.70
2013,09,30,06,24,991.70
2013,09,30,06,25,991.70
2013,09,30,06,26,991.70
2013,09,30,06,27,991.70
2013,09,30,06,28,991.70
2013,09,30,06,29,991.70
2013,09,30,06,30,992.08
2013,09,30,06,31,992.08
2013,09,30,06,32,992.08
2013,09,30,06,33,992.08
2013,09,30,06,34,992.08
2013,09,30,06,35,992.08
2013,09,30,06,36,992.08
2013,09,30,06,37,992.08
2013,09,30,06,38,992.08
2013,09,30,06,39,992.08
2013,09,30,06,40,992.08
2013,09,30,06,41,992.08
2013,09,30,06,42,992.08
2013,09,30,06,43,992.08
2013,09,30,06,44,992.08
2013,09,30,06,45,992.18
2013,09,30,06,46,992.18
2013,09,30,06,47,992.18
2013,09,30,06,48,992.18
2013,09,30,06,49,992.18
2013,09,30,06,50,992.18
2013,09,30,06,51,992.18
2013,09,30,06,52,992.18
2013,09,30,06,53,992.18
2013,09,30,06,54,992.18
2013,09,30,06,55,992.18
2013,09,30,06,56,992.18
2013,09,30,06,57,992.18
2013,09,30,06,58,992.18
2013,09,30,06,59,992.18
2013,09,30,07,00,992.62
2013,09,30,07,01,992.62
2013,09,30,07,02,992.62
2013,09,30,07,03,992.62
2013,09,30,07,04,992.62
2013,09,30,07,05,992.62
2013,09,30,07,06,992.62
2013,09,30,07,07,992.62
2013,09,30,07,08,992.62
2013,09,30,07,09,992.62
2013,09,30,07,10,992.62
2013,09,30,07,11,992.62
2013,09,30,07,12,992.62
2013,09,30,07,13,992.62
2013,09,30,07,14,992.62
2013,09,30,07,15,993.10
2013,09,30,07,16,993.13
2013,09,30,07,17,993.13
2013,09,30,07,18,993.13
2013,09,30,07,19,993.13
2013,09,30,07,20,993.13
2013,09,30,07,21,993.13
2013,09,30,07,22,993.13
2013,09,30,07,23,993.13
2013,09,30,07,24,993.13
2013,09,30,07,25,993.13
2013,09,30,07,26,993.13
2013,09,30,07,27,993.13
2013,09,30,07,28,993.13
2013,09,30,07,29,993.13
2013,09,30,07,30,993.16
2013,09,30,07,31,993.16
2013,09,30,07,32,993.16
2013,09,30,07,33,993.16
2013,09,30,07,34,993.16
2013,09,30,07,35,993.16
2013,09,30,07,36,993.16
2013,09,30,07,37,993.16
2013,09,30,07,38,993.16
2013,09,30,07,39,993.16
2013,09,30,07,40,993.16
2013,09,30,07,41,993.16
2013,09,30,07,42,993.16
2013,09,30,07,43,993.16
2013,09,30,07,44,993.16
2013,09,30,07,45,993.55
2013,09,30,07,46,993.57
2013,09,30,07,47,993.57
2013,09,30,07,48,993.57
2013,09,30,07,49,993.57
2013,09,30,07,50,993.57
2013,09,30,07,51,993.57
2013,09,30,07,52,993.57
2013,09,30,07,53,993.57
2013,09,30,07,54,993.57
2013,09,30,07,55,993.57
2013,09,30,07,56,993.57
2013,09,30,07,57,993.57
2013,09,30,07,58,993.57
2013,09,30,07,59,993.57
2013,09,30,08,00,993.76
2013,09,30,08,01,993.77
2013,09,30,08,02,993.77
2013,09,30,08,03,993.77
2013,09,30,08,04,993.77
2013,09,30,08,05,993.77
2013,09,30,08,06,993.77
2013,09,30,08,07,993.77
2013,09,30,08,08,993.77
2013,09,30,08,09,993.77
2013,09,30,08,10,993.77
2013,09,30,08,11,993.77
2013,09,30,08,12,993.77
2013,09,30,08,13,993.77
2013,09,30,08,14,993.77
2013,09,30,08,15,994.14
2013,09,30,08,16,994.14
2013,09,30,08,17,994.14
2013,09,30,08,18,994.14
2013,09,30,08,19,994.14
2013,09,30,08,20,994.14
2013,09,30,08,21,994.14
2013,09,30,08,22,994.14
2013,09,30,08,23,994.14
2013,09,30,08,24,994.14
2013,09,30,08,25,994.14
2013,09,30,08,26,994.14
2013,09,30,08,27,994.14
2013,09,30,08,28,994.14
2013,09,30,08,29,994.14
2013,09,30,08,30,994.62
2013,09,30,08,31,994.65
2013,09,30,08,32,994.65
2013,09,30,08,33,994.65
2013,09,30,08,34,994.65
2013,09,30,08,35,994.65
2013,09,30,08,36,994.65
2013,09,30,08,37,994.65
2013,09,30,08,38,994.65
2013,09,30,08,39,994.65
2013,09,30,08,40,994.65
2013,09,30,08,41,994.65
2013,09,30,08,42,994.65
2013,09,30,08,43,994.65
2013,09,30,08,44,994.65
2013,09,30,08,45,994.89
2013,09,30,08,46,994.89
2013,09,30,08,47,994.89
2013,09,30,08,48,994.89
2013,09,30,08,49,994.89
2013,09,30,08,50,994.89
2013,09,30,08,51,994.89
2013,09,30,08,52,994.89
2013,09,30,08,53,994.89
2013,09,30,08,54,994.89
2013,09,30,08,55,994.89
2013,09,30,08,56,994.89
2013,09,30,08,57,994.89
2013,09,30,08,58,994.89
2013,09,30,08,59,994.89
2013,09,30,09,00,994.85
2013,09,30,09,01,994.85
2013,09,30,09,02,994.85
2013,09,30,09,03,994.85
2013,09,30,09,04,994.85
2013,09,30,09,05,994.85
2013,09,30,09,06,994.85
2013,09,30,09,07,994.85
2013,09,30,09,08,994.85
2013,09,30,09,09,994.85
2013,09,30,09,10,994.85
2013,09,30,09,11,994.85
2013,09,30,09,12,994.85
2013,09,30,09,13,994.85
2013,09,30,09,14,994.85
2013,09,30,09,15,995.08
2013,09,30,09,16,995.09
2013,09,30,09,17,995.09
2013,09,30,09,18,995.09
2013,09,30,09,19,995.09
2013,09,30,09,20,995.09
2013,09,30,09,21,995.09
2013,09,30,09,22,995.09
2013,09,30,09,23,995.09
2013,09,30,09,24,995.09
2013,09,30,09,25,995.09
2013,09,30,09,26,995.09
2013,09,30,09,27,995.09
2013,09,30,09,28,995.09
2013,09,30,09,29,995.09
2013,09,30,09,30,995.43
2013,09,30,09,31,995.43
2013,09,30,09,32,995.43
2013,09,30,09,33,995.43
2013,09,30,09,34,995.43
2013,09,30,09,35,995.43
2013,09,30,09,36,995.43
2013,09,30,09,37,995.43
2013,09,30,09,38,995.43
2013,09,30,09,39,995.43
2013,09,30,09,40,995.43
2013,09,30,09,41,995.43
2013,09,30,09,42,995.43
2013,09,30,09,43,995.43
2013,09,30,09,44,995.43
2013,09,30,09,45,995.59
2013,09,30,09,46,995.60
2013,09,30,09,47,995.60
2013,09,30,09,48,995.60
2013,09,30,09,49,995.60
2013,09,30,09,50,995.60
2013,09,30,09,51,995.60
2013,09,30,09,52,995.60
2013,09,30,09,53,995.60
2013,09,30,09,54,995.60
2013,09,30,09,55,995.60
2013,09,30,09,56,995.60
2013,09,30,09,57,995.60
2013,09,30,09,58,995.60
2013,09,30,09,59,995.60
2013,09,30,10,00,995.89
2013,09,30,10,01,995.90
2013,09,30,10,02,995.90
2013,09,30,10,03,995.90
2013,09,30,10,04,995.90
2013,09,30,10,05,995.90
2013,09,30,10,06,995.90
2013,09,30,10,07,995.90
2013,09,30,10,08,995.90
2013,09,30,10,09,995.90
2013,09,30,10,10,995.90
2013,09,30,10,11,995.90
2013,09,30,10,12,995.90
2013,09,30,10,13,995.90
2013,09,30,10,14,995.90
2013,09,30,10,15,996.21
2013,09,30,10,16,996.21
2013,09,30,10,17,996.21
2013,09,30,10,18,996.21
2013,09,30,10,19,996.21
2013,09,30,10,20,996.21
2013,09,30,10,21,996.21
2013,09,30,10,22,996.21
2013,09,30,10,23,996.21
2013,09,30,10,24,996.21
2013,09,30,10,25,996.21
2013,09,30,10,26,996.21
2013,09,30,10,27,996.21
2013,09,30,10,28,996.21
2013,09,30,10,29,996.21
2013,09,30,10,30,996.24
2013,09,30,10,31,996.24
2013,09,30,10,32,996.24
2013,09,30,10,33,996.24
2013,09,30,10,34,996.24
2013,09,30,10,35,996.24
2013,09,30,10,36,996.24
2013,09,30,10,37,996.24
2013,09,30,10,38,996.24
2013,09,30,10,39,996.24
2013,09,30,10,40,996.24
2013,09,30,10,41,996.24
2013,09,30,10,42,996.24
2013,09,30,10,43,996.24
2013,09,30,10,44,996.24
2013,09,30,10,45,996.75
2013,09,30,10,46,996.75
2013,09,30,10,47,996.75
2013,09,30,10,48,996.75
2013,09,30,10,49,996.75
2013,09,30,10,50,996.75
2013,09,30,10,51,996.75
2013,09,30,10,52,996.75
2013,09,30,10,53,996.75
2013,09,30,10,54,996.75
2013,09,30,10,55,996.75
2013,09,30,10,56,996.75
2013,09,30,10,57,996.75
2013,09,30,10,58,996.75
2013,09,30,10,59,996.75
2013,09,30,11,00,997.23
2013,09,30,11,01,997.26
2013,09,30,11,02,997.26
2013,09,30,11,03,997.26
2013,09,30,11,04,997.26
2013,09,30,11,05,997.26
2013,09,30,11,06,997.26
2013,09,30,11,07,997.26
2013,09,30,11,08,997.26
2013,09,30,11,09,997.26
2013,09,30,11,10,997.26
2013,09,30,11,11,997.26
2013,09,30,11,12,997.26
2013,09,30,11,13,997.26
2013,09,30,11,14,997.26
2013,09,30,11,15,997.19
2013,09,30,11,16,997.19
2013,09,30,11,17,997.19
2013,09,30,11,18,997.19
2013,09,30,11,19,997.19
2013,09,30,11,20,997.19
2013,09,30,11,21,997.19
2013,09,30,11,22,997.19
2013,09,30,11,23,997.19
2013,09,30,11,24,997.19
2013,09,30,11,25,997.19
2013,09,30,11,26,997.19
2013,09,30,11,27,997.19
2013,09,30,11,28,997.19
2013,09,30,11,29,997.19
2013,09,30,11,30,997.26
2013,09,30,11,31,997.26
2013,09,30,11,32,997.26
2013,09,30,11,33,997.26
2013,09,30,11,34,997.26
2013,09,30,11,35,997.26
2013,09,30,11,36,997.26
2013,09,30,11,37,997.26
2013,09,30,11,38,997.26
2013,09,30,11,39,997.26
2013,09,30,11,40,997.26
2013,09,30,11,41,997.26
2013,09,30,11,42,997.26
2013,09,30,11,43,997.26
2013,09,30,11,44,997.26
2013,09,30,11,45,997.39
2013,09,30,11,46,997.39
2013,09,30,11,47,997.39
2013,09,30,11,48,997.39
2013,09,30,11,49,997.39
2013,09,30,11,50,997.39
2013,09,30,11,51,997.39
2013,09,30,11,52,997.39
2013,09,30,11,53,997.39
2013,09,30,11,54,997.39
2013,09,30,11,55,997.39
2013,09,30,11,56,997.39
2013,09,30,11,57,997.39
2013,09,30,11,58,997.39
2013,09,30,11,59,997.39
2013,09,30,12,00,997.63
2013,09,30,12,01,997.63
2013,09,30,12,02,997.63
2013,09,30,12,03,997.63
2013,09,30,12,04,997.63
2013,09,30,12,05,997.63
2013,09,30,12,06,997.63
2013,09,30,12,07,997.63
2013,09,30,12,08,997.63
2013,09,30,12,09,997.63
2013,09,30,12,10,997.63
2013,09,30,12,11,997.63
2013,09,30,12,12,997.63
2013,09,30,12,13,997.63
2013,09,30,12,14,997.63
2013,09,30,12,15,997.79
2013,09,30,12,16,997.80
2013,09,30,12,17,997.80
2013,09,30,12,18,997.80
2013,09,30,12,19,997.80
2013,09,30,12,20,997.80
2013,09,30,12,21,997.80
2013,09,30,12,22,997.80
2013,09,30,12,23,997.80
2013,09,30,12,24,997.80
2013,09,30,12,25,997.80
2013,09,30,12,26,997.80
2013,09,30,12,27,997.80
2013,09,30,12,28,997.80
2013,09,30,12,29,997.80
2013,09,30,12,30,997.80
2013,09,30,12,31,997.80
2013,09,30,12,32,997.80
2013,09,30,12,33,997.80
2013,09,30,12,34,997.80
2013,09,30,12,35,997.80
2013,09,30,12,36,997.80
2013,09,30,12,37,997.80
2013,09,30,12,38,997.80
2013,09,30,12,39,997.80
2013,09,30,12,40,997.80
2013,09,30,12,41,997.80
2013,09,30,12,42,997.80
2013,09,30,12,43,997.80
2013,09,30,12,44,997.80
2013,09,30,12,45,997.96
2013,09,30,12,46,997.97
2013,09,30,12,47,997.97
2013,09,30,12,48,997.97
2013,09,30,12,49,997.97
2013,09,30,12,50,997.97
2013,09,30,12,51,997.97
2013,09,30,12,52,997.97
2013,09,30,12,53,997.97
2013,09,30,12,54,997.97
2013,09,30,12,55,997.97
2013,09,30,12,56,997.97
2013,09,30,12,57,997.97
2013,09,30,12,58,997.97
2013,09,30,12,59,997.97
2013,09,30,13,00,998.29
2013,09,30,13,01,998.31
2013,09,30,13,02,998.31
2013,09,30,13,03,998.31
2013,09,30,13,04,998.31
2013,09,30,13,05,998.31
2013,09,30,13,06,998.31
2013,09,30,13,07,998.31
2013,09,30,13,08,998.31
2013,09,30,13,09,998.31
2013,09,30,13,10,998.31
2013,09,30,13,11,998.31
2013,09,30,13,12,998.31
2013,09,30,13,13,998.31
2013,09,30,13,14,998.31
2013,09,30,13,15,998.34
2013,09,30,13,16,998.34
2013,09,30,13,17,998.34
2013,09,30,13,18,998.34
2013,09,30,13,19,998.34
2013,09,30,13,20,998.34
2013,09,30,13,21,998.34
2013,09,30,13,22,998.34
2013,09,30,13,23,998.34
2013,09,30,13,24,998.34
2013,09,30,13,25,998.34
2013,09,30,13,26,998.34
2013,09,30,13,27,998.34
2013,09,30,13,28,998.34
2013,09,30,13,29,998.34
2013,09,30,13,30,998.60
2013,09,30,13,31,998.61
2013,09,30,13,32,998.61
2013,09,30,13,33,998.61
2013,09,30,13,34,998.61
2013,09,30,13,35,998.61
2013,09,30,13,36,998.61
2013,09,30,13,37,998.61
2013,09,30,13,38,998.61
2013,09,30,13,39,998.61
2013,09,30,13,40,998.61
2013,09,30,13,41,998.61
2013,09,30,13,42,998.61
2013,09,30,13,43,998.61
2013,09,30,13,44,998.61
2013,09,30,13,45,998.81
2013,09,30,13,46,998.82
2013,09,30,13,47,998.82
2013,09,30,13,48,998.82
2013,09,30,13,49,998.82
2013,09,30,13,50,998.82
2013,09,30,13,51,998.82
2013,09,30,13,52,998.82
2013,09,30,13,53,998.82
2013,09,30,13,54,998.82
2013,09,30,13,55,998.82
2013,09,30,13,56,998.82
2013,09,30,13,57,998.82
2013,09,30,13,58,998.82
2013,09,30,13,59,998.82
2013,09,30,14,00,998.91
2013,09,30,14,01,998.92
2013,09,30,14,02,998.92
2013,09,30,14,03,998.92
2013,09,30,14,04,998.92
2013,09,30,14,05,998.92
2013,09,30,14,06,998.92
2013,09,30,14,07,998.92
2013,09,30,14,08,998.92
2013,09,30,14,09,998.92
2013,09,30,14,10,998.92
2013,09,30,14,11,998.92
2013,09,30,14,12,998.92
2013,09,30,14,13,998.92
2013,09,30,14,14,998.92
2013,09,30,14,15,999.19
2013,09,30,14,16,999.19
2013,09,30,14,17,999.19
2013,09,30,14,18,999.19
2013,09,30,14,19,999.19
2013,09,30,14,20,999.19
2013,09,30,14,21,999.19
2013,09,30,14,22,999.19
2013,09,30,14,23,999.19
2013,09,30,14,24,999.19
2013,09,30,14,25,999.19
2013,09,30,14,26,999.19
2013,09,30,14,27,999.19
2013,09,30,14,28,999.19
2013,09,30,14,29,999.19
2013,09,30,14,30,999.43
2013,09,30,14,31,999.43
2013,09,30,14,32,999.43
2013,09,30,14,33,999.43
2013,09,30,14,34,999.43
2013,09,30,14,35,999.43
2013,09,30,14,36,999.43
2013,09,30,14,37,999.43
2013,09,30,14,38,999.43
2013,09,30,14,39,999.43
2013,09,30,14,40,999.43
2013,09,30,14,41,999.43
2013,09,30,14,42,999.43
2013,09,30,14,43,999.43
2013,09,30,14,44,999.43
2013,09,30,14,45,999.73
2013,09,30,14,46,999.73
2013,09,30,14,47,999.73
2013,09,30,14,48,999.73
2013,09,30,14,49,999.73
2013,09,30,14,50,999.73
2013,09,30,14,51,999.73
2013,09,30,14,52,999.73
2013,09,30,14,53,999.73
2013,09,30,14,54,999.73
2013,09,30,14,55,999.73
2013,09,30,14,56,999.73
2013,09,30,14,57,999.73
2013,09,30,14,58,999.73
2013,09,30,14,59,999.73
2013,09,30,15,00,999.83
2013,09,30,15,01,999.83
2013,09,30,15,02,999.83
2013,09,30,15,03,999.83
2013,09,30,15,04,999.83
2013,09,30,15,05,999.83
2013,09,30,15,06,999.83
2013,09,30,15,07,999.83
2013,09,30,15,08,999.83
2013,09,30,15,09,999.83
2013,09,30,15,10,999.83
2013,09,30,15,11,999.83
2013,09,30,15,12,999.83
2013,09,30,15,13,999.83
2013,09,30,15,14,999.83
2013,09,30,15,15,1000.06
2013,09,30,15,16,1000.07
2013,09,30,15,17,1000.07
2013,09,30,15,18,1000.07
2013,09,30,15,19,1000.07
2013,09,30,15,20,1000.07
2013,09,30,15,21,1000.07
2013,09,30,15,22,1000.07
2013,09,30,15,23,1000.07
2013,09,30,15,24,1000.07
2013,09,30,15,25,1000.07
2013,09,30,15,26,1000.07
2013,09,30,15,27,1000.07
2013,09,30,15,28,1000.07
2013,09,30,15,29,1000.07
2013,09,30,15,30,1000.23
2013,09,30,15,31,1000.24
2013,09,30,15,32,1000.24
2013,09,30,15,33,1000.24
2013,09,30,15,34,1000.24
2013,09,30,15,35,1000.24
2013,09,30,15,36,1000.24
2013,09,30,15,37,1000.24
2013,09,30,15,38,1000.24
2013,09,30,15,39,1000.24
2013,09,30,15,40,1000.24
2013,09,30,15,41,1000.24
2013,09,30,15,42,1000.24
2013,09,30,15,43,1000.24
2013,09,30,15,44,1000.24
2013,09,30,15,45,1000.75
2013,09,30,15,46,1000.78
2013,09,30,15,47,1000.78
2013,09,30,15,48,1000.78
2013,09,30,15,49,1000.78
2013,09,30,15,50,1000.78
2013,09,30,15,51,1000.78
2013,09,30,15,52,1000.78
2013,09,30,15,53,1000.78
2013,09,30,15,54,1000.78
2013,09,30,15,55,1000.78
2013,09,30,15,56,1000.78
2013,09,30,15,57,1000.78
2013,09,30,15,58,1000.78
2013,09,30,15,59,1000.78
2013,09,30,16,00,1001.20
2013,09,30,16,01,1001.22
2013,09,30,16,02,1001.22
2013,09,30,16,03,1001.22
2013,09,30,16,04,1001.22
2013,09,30,16,05,1001.22
2013,09,30,16,06,1001.22
2013,09,30,16,07,1001.22
2013,09,30,16,08,1001.22
2013,09,30,16,09,1001.22
2013,09,30,16,10,1001.22
2013,09,30,16,11,1001.22
2013,09,30,16,12,1001.22
2013,09,30,16,13,1001.22
2013,09,30,16,14,1001.22
2013,09,30,16,15,1001.03
2013,09,30,16,16,1001.02
2013,09,30,16,17,1001.02
2013,09,30,16,18,1001.02
2013,09,30,16,19,1001.02
2013,09,30,16,20,1001.02
2013,09,30,16,21,1001.02
2013,09,30,16,22,1001.02
2013,09,30,16,23,1001.02
2013,09,30,16,24,1001.02
2013,09,30,16,25,1001.02
2013,09,30,16,26,1001.02
2013,09,30,16,27,1001.02
2013,09,30,16,28,1001.02
2013,09,30,16,29,1001.02
2013,09,30,16,30,1000.70
2013,09,30,16,31,1000.68
2013,09,30,16,32,1000.68